Location: Acton
(51.4942°N, 0.2232°W)
Time: 17:11:40
(UTC+00:00)

NOSS 2-2 (C) - Pass Details

Date: 18 September 2020
Orbit: 468 x 1740 km, 63.3° (Epoch: 19 October)

Event Time Altitude Azimuth Distance (km) Brightness Sun altitude
Rises 20:04:42 0° 224° (SW) 2,499 6.9 -18.3°
Reaches altitude 10° 20:06:43 10° 225° (SW) 1,638 5.9 -18.6°
Maximum altitude 20:10:15 87° 317° (NW) 515 3.1 -19.1°
Drops below altitude 10° 20:14:22 10° 45° (NE) 1,911 5.9 -19.7°
Enters shadow 20:15:46 - 45° (NE) 2,502 6.5 -19.9°
